WGS F2 (USA 204)

Last updated on Tue Jul 08 2025 00:02:44 GMT+0000 (Coordinated Universal Time)

1 34713U 09017A 25188.07530453 .00000084 00000+0 00000+0 0 9996 2 34713 0.0142 13.3099 0000648 138.2786 218.3251 1.00273780 42157
UTC large
Height (km)
Speed (km/s)
/
Latitude / Longitude
Inclination (degrees)
Orbital Period (minutes)
Azimuth
Elevation
Range (km)
Doppler Factor

Next 0 passes for location: London (51.5072 / 0.1276)

Sorry there are no passes over London.